Regional Weather Roundup
Issued by NWS

Home | Current Version | Previous Version | Text Only | Print | Product List | Glossary Off
Versions: 1 2 3 4 5 6 7 8 9 10 11 12 13 14 15 16 17 18 19 20 21 22 23 24 25 26 27 28 29 30 31 32 33 34 35 36 37 38 39 40 41 42 43 44 45 46 47 48 49 50

000
ASUS43 KDMX 022207
RWRIA

WEATHER ROUNDUP FOR IOWA
NATIONAL WEATHER SERVICE DES MOINES IA
400 PM CST MON MAR 02 2015

NOTE: "FAIR" INDICATES FEW OR NO CLOUDS BELOW 12,000 FEET WITH NO
SIGNIFICANT WEATHER AND/OR OBSTRUCTIONS TO VISIBILITY.

* - THESE STATIONS ARE NOT NWS STATIONS...THUS NOT UNDER NWS
QUALITY CONTROL.  THEY ALSO DO NOT REPORT WEATHER SUCH
AS PRECIPITATION OR FOG.

IAZ001>003-012>014-020>022-031>034-043>046-022300-
   NORTHWEST IOWA

CITY           SKY/WX    TMP DP  RH WIND       PRES   REMARKS
CARROLL *      CLOUDY    32  18  55 SE18      30.24F WCI  20
CHEROKEE *     CLOUDY    30  19  64 SE14G21   30.20F WCI  20
DENISON *      CLOUDY    32  21  64 SE13G21   30.19F WCI  22
LE MARS *      CLOUDY    34  21  60 SE16G22   30.17F WCI  23
ORANGE CITY *  CLOUDY    32  18  55 S16       30.16F WCI  21
SHELDON *      CLOUDY    28  18  64 S21       30.15F WCI  15
SIOUX CITY     CLOUDY    35  22  58 SE16      30.16F WCI  25
SPENCER        CLOUDY    28  18  66 SE15      30.20F WCI  16
STORM LAKE *   CLOUDY    28  21  74 SE18      30.20F WCI  16
$$

IAZ055>058-069>071-079>083-090>094-022300-
   SOUTHWEST IOWA

CITY           SKY/WX    TMP DP  RH WIND       PRES   REMARKS
ATLANTIC *     CLOUDY    37  18  44 S13       30.21F WCI  29
AUDUBON *      CLOUDY    34  19  55 SE15      30.23F WCI  24
CLARINDA *     MOSUNNY   41  18  38 S10G22    30.24F
COUNCIL BLFS * CLOUDY    39  21  48 S21       30.17F WCI  29
CRESTON *      CLOUDY    36  16  44 SE15      30.25F WCI  26
HARLAN  *      CLOUDY    37  21  52 SE13G20   30.23F WCI  29
LAMONI         MOSUNNY   34  19  54 SE12      30.28F WCI  25
RED OAK *      CLOUDY    41  18  38 SE15      30.21F
SHENANDOAH *   MOSUNNY   41  19  42 SE18G25   30.22F
$$

IAZ047>049-059>061-072>074-084-022300-
   CENTRAL IOWA

CITY           SKY/WX    TMP DP  RH WIND       PRES   REMARKS
AMES           CLOUDY    27  16  63 SE8       30.31F WCI  19
ANKENY *       CLOUDY    30  18  59 SE12      30.31F WCI  21
CHARITON *     CLOUDY    34  19  55 SE8       30.30F WCI  27
DES MOINES     CLOUDY    32  16  51 SE12      30.31F WCI  23
GRINNELL*      CLOUDY    27  16  63 E7        30.34F WCI  19
KNOXVILLE *    CLOUDY    32  16  51 SE10G17   30.31F WCI  24
MARSHALLTOWN   CLOUDY    25  15  66 S9        30.32F WCI  15
PELLA *        MOSUNNY   30  21  69 SE10      30.34F WCI  21
PERRY *          N/A     32  21  64 SE13      30.27F WCI  22
$$

IAZ004>006-015-016-023>025-035-036-022300-
   NORTH CENTRAL IOWA

CITY           SKY/WX    TMP DP  RH WIND       PRES   REMARKS
ALGONA *       CLOUDY    27  19  74 SE14      30.26F WCI  15
CLARION *      CLOUDY    25  21  86 SE15      30.29F WCI  12
ESTHERVILLE    CLOUDY    25  18  74 S17       30.22F WCI  12
FORT DODGE *   CLOUDY    28  18  64 SE12      30.28F WCI  18
MASON CITY     CLOUDY    21  14  74 SE10      30.31F WCI  10
FOREST CITY *  SUNNY     25  16  68 SE12      30.28F WCI  14
IOWA FALLS *   CLOUDY    23  16  74 SE9       30.31F WCI  13
$$

IAZ007>011-017>019-026>030-037>042-050>054-066-022300-
   NORTHEAST IOWA

CITY           SKY/WX    TMP DP  RH WIND       PRES   REMARKS
CEDAR RAPIDS   CLOUDY    25  14  63 E8        30.35F WCI  16
CHARLES CITY * CLOUDY    21  10  63 SE7       30.32F WCI  13
CLINTON *      PTSUNNY   27  16  63 SE8       30.42F WCI  18
DECORAH *      CLOUDY    23   9  54 VRB5      30.32F WCI  17
DUBUQUE        CLOUDY    25  14  63 S8        30.36F WCI  16
MONTICELLO *   PTSUNNY   25  16  68 SE8       30.37F WCI  16
OELWEIN *      CLOUDY    23  12  63 S6        30.34F WCI  16
WATERLOO       CLOUDY    24  12  60 S8        30.34F WCI  15
$$

IAZ064-065-067-068-078-022300-
   EAST CENTRAL IOWA

CITY           SKY/WX    TMP DP  RH WIND       PRES   REMARKS
DAVENPORT      CLOUDY    27  16  63 SE9       30.39F WCI  18
IOWA CITY      CLOUDY    26  15  63 SE9       30.39F WCI  17
MT. PLEASANT * CLOUDY    28  16  59 NE3       30.38F
MUSCATINE *    CLOUDY    28  16  59 SE6       30.40F WCI  22
QUAD CITIES    CLOUDY    27  17  66 SE7       30.40F WCI  19
$$

IAZ062-063-075>077-085>089-095>099-022300-
   SOUTHEAST IOWA

CITY           SKY/WX    TMP DP  RH WIND       PRES   REMARKS
BURLINGTON     CLOUDY    29  16  58 E5        30.38F WCI  24
FAIRFIELD *    CLOUDY    30  16  55 SE10      30.36F WCI  21
FORT MADISON * PTSUNNY   30  18  59 SE7       30.38F WCI  23
KEOKUK *       SUNNY     30  18  59 E7        30.37F WCI  23
OSKALOOSA *    CLOUDY    28  16  59 SE8       30.35F WCI  20
CENTERVILLE *  PTSUNNY   32  18  55 SE8       30.33F WCI  25
OTTUMWA        CLOUDY    30  16  56 SE10      30.33F WCI  21
WASHINGTON *   CLOUDY    28  19  69 SE9       30.37F WCI  20
$$

ABBREVIATIONS USED IN REMARKS
   TC - TEMPERATURES IN CELSIUS
  WCI - WIND CHILL INDEX
   HX - HEAT INDEX
  VSB - VISIBILITY
$$




USA.gov is the U.S. government's official web portal to all federal, state and local government web resources and services.